Wind_Speed
13 13 14 14 14 15 15 16 16 17 17 16 15 15 15 14 14 13 12 10 9 8 7 6 5 4 4 6 6 5 6 13 13 9 9 11 11 9 11 6 6 9 5 6 7 12 6
12 12 13 13 13 14 15 16 17 18 19 19 19 18 17 16 15 13 11 9 7 6 6 5 4 4 4 11 0 3 1 12 13 12 10 10 9 9 9 9 10 9 8 10 5 7 13
11 11 11 12 13 14 15 16 17 19 20 21 21 20 19 17 16 14 11 8 6 4 4 4 3 4 8 14 3 3 7 11 14 13 11 9 10 10 13 9 7 7 12 14 8 2 6
11 11 12 12 13 14 15 16 18 19 20 21 22 22 21 19 16 14 11 7 4 3 3 2 2 4 8 5 5 5 7 10 12 13 12 10 5 12 15 13 15 13 16 14 10 2 3
11 11 11 12 13 14 15 16 18 19 21 22 23 22 22 21 17 14 10 6 2 1 1 3 3 4 9 3 8 7 8 11 12 12 11 9 8 14 17 15 14 14 11 9 10 7 1
11 12 12 12 13 14 16 17 18 20 21 22 23 23 22 21 18 14 9 4 1 2 2 5 6 7 12 9 8 9 9 8 12 11 12 13 15 12 13 10 11 9 5 9 4 3 4
11 12 12 13 14 15 16 18 19 21 22 23 24 23 22 21 17 14 7 2 4 3 12 13 11 8 7 5 9 10 10 9 11 10 13 16 11 13 16 16 17 14 9 10 11 11 4
12 12 13 13 14 16 17 19 21 22 23 24 24 23 22 20 17 12 5 4 9 7 14 20 14 13 2 6 8 11 12 12 13 13 14 13 16 16 17 16 15 11 12 13 11 12 6
12 12 13 13 15 16 18 20 22 23 24 24 24 24 21 19 14 7 5 9 9 8 8 16 16 13 11 10 14 15 16 16 12 12 14 15 18 6 6 13 16 11 12 13 13 12 14
12 12 13 14 15 17 19 21 23 24 25 24 24 24 20 16 6 6 7 4 4 6 5 13 13 12 16 10 14 14 18 16 11 13 14 13 13 15 12 12 15 13 14 13 8 10 11
12 13 14 14 16 18 20 23 25 26 25 24 24 22 18 13 7 3 4 4 4 3 6 12 12 9 14 12 12 12 15 16 16 13 8 14 14 11 13 14 12 15 12 12 12 12 14
13 14 15 16 17 19 22 25 28 26 25 24 22 21 16 9 7 9 4 6 4 6 6 9 11 11 15 19 12 11 11 15 14 13 17 18 18 11 11 10 10 10 16 12 14 13 13
13 14 15 17 19 21 24 26 29 26 26 24 20 18 14 8 3 2 5 5 6 9 8 12 13 15 15 14 16 10 10 13 12 12 15 19 20 17 16 11 14 9 11 10 11 11 10
14 15 17 19 21 23 25 28 29 26 26 24 18 15 10 8 7 6 5 7 8 13 4 7 4 14 13 14 15 12 12 12 16 15 13 14 7 14 14 11 13 11 12 11 16 12 4
14 16 19 21 23 25 27 28 28 25 25 23 13 5 7 4 9 7 10 9 14 11 7 4 10 9 13 13 8 12 12 12 10 16 10 13 10 6 3 3 9 12 12 17 16 16 13
16 19 22 24 25 26 27 27 26 25 22 21 8 7 5 6 8 7 8 15 19 8 7 7 12 11 12 15 13 8 10 10 8 5 4 10 9 9 13 6 10 9 12 12 8 9 11
19 23 25 25 25 25 26 24 23 25 20 12 3 6 8 8 9 10 9 14 3 4 6 8 11 9 7 4 11 10 6 9 4 4 3 12 11 14 5 8 12 10 11 10 13 11 12
22 25 26 24 24 24 23 20 21 24 18 7 7 5 9 10 10 14 12 10 4 7 3 9 5 12 13 13 6 2 7 14 10 6 7 12 9 12 17 17 10 14 12 13 8 10 11
24 26 25 24 22 24 18 16 19 21 20 13 6 3 7 11 7 9 8 5 3 5 9 5 7 3 9 10 6 11 1 10 9 9 10 12 8 9 13 10 17 14 18 18 16 16 15
25 25 24 22 22 18 17 15 16 18 15 10 7 4 8 12 16 15 4 6 7 1 9 7 9 7 8 10 10 8 11 4 8 6 9 7 12 15 14 21 18 9 10 17 18 14 16
24 24 23 19 18 16 16 15 15 13 10 9 6 5 8 4 9 10 6 8 5 2 3 2 3 6 8 6 13 9 4 10 6 10 4 5 14 15 18 21 22 22 22 18 18 21 19
23 23 21 18 16 15 15 16 15 10 5 4 8 8 13 9 2 5 3 6 7 4 1 6 5 10 8 5 10 11 12 8 7 10 15 13 13 16 19 21 22 25 22 23 22 20 24
21 21 20 17 15 15 15 16 16 13 5 4 11 7 8 1 8 8 4 8 6 9 3 5 8 8 8 12 12 14 15 16 16 14 13 13 12 13 17 18 20 19 20 22 23 19 20
20 19 19 16 15 15 14 15 14 14 12 11 11 8 9 3 4 9 8 4 2 7 9 7 5 7 10 13 14 15 18 18 16 13 13 11 11 10 13 15 18 16 15 24 21 14 16
18 18 17 16 15 14 13 13 13 12 10 9 11 6 8 9 7 3 0 2 1 4 8 4 6 6 10 9 7 6 10 9 7 5 2 7 6 7 8 12 18 13 31 26 21 19 16
17 16 16 16 14 12 13 12 12 12 9 8 9 7 5 10 9 8 6 3 8 1 6 2 3 7 6 8 7 3 3 5 3 7 8 9 6 7 11 13 17 8 18 34 33 8 29
16 15 15 15 13 12 11 11 12 12 10 6 8 10 4 13 9 5 8 9 6 6 4 4 6 5 5 5 7 3 4 3 3 5 6 7 9 11 11 13 7 8 14 12 7 7 22
16 15 15 14 12 11 10 10 12 12 10 5 5 12 6 7 6 3 4 6 6 6 6 9 5 2 3 3 4 5 4 6 4 4 6 5 7 7 7 12 5 4 9 6 6 10 8
15 15 15 14 12 10 9 9 11 10 7 6 6 11 7 3 6 3 2 2 1 4 7 5 3 3 7 5 2 3 4 3 6 5 4 1 7 7 6 9 13 18 19 20 24 23 24
Wind_Direction
43 41 40 39 34 31 27 24 21 18 15 10 3 355 348 341 335 327 318 308 302 298 298 300 294 288 290 262 253 297 241 207 203 203 238 252 273 289 283 349 294 254 24 305 314 295 323
34 32 30 27 27 25 21 18 15 12 10 7 4 359 353 345 340 334 324 313 301 293 292 292 282 269 259 251 353 281 172 201 195 207 232 247 261 344 312 275 295 6 300 289 292 314 309
22 19 20 16 13 13 12 9 7 4 2 1 0 358 354 348 342 337 329 317 303 287 285 284 264 259 256 243 261 243 193 208 201 211 232 240 275 292 276 281 326 305 266 261 192 290 295
13 9 6 6 3 0 1 359 357 356 355 354 355 355 351 349 343 338 332 321 300 285 284 262 228 242 261 182 218 222 190 197 206 215 234 280 278 267 283 291 288 239 244 263 134 226 90
1 0 359 356 356 354 352 352 351 349 348 348 348 351 348 346 341 337 332 323 288 277 245 179 146 277 256 262 206 198 184 189 199 212 232 261 262 269 267 263 267 233 261 161 201 179 328
354 352 351 352 350 350 347 346 346 344 343 342 343 345 345 343 339 333 331 318 261 211 204 195 223 251 248 233 191 184 185 209 199 214 230 242 251 253 247 254 263 331 253 325 339 276 281
351 349 348 348 347 345 345 343 342 340 339 338 339 340 341 339 335 326 315 257 300 233 216 220 159 246 138 126 168 187 191 192 201 222 231 227 235 241 246 248 259 294 325 296 287 281 294
350 349 347 346 344 342 342 341 338 337 336 334 334 336 338 336 331 321 271 213 350 319 300 229 247 242 205 187 187 199 190 204 206 232 219 247 232 242 257 277 280 314 294 278 281 267 299
350 349 347 346 344 342 341 340 337 335 333 330 330 331 335 334 332 321 261 248 307 321 266 211 211 219 205 213 226 200 197 213 230 228 244 239 258 233 297 273 275 255 269 288 296 314 304
349 349 347 345 343 342 340 339 337 333 329 326 326 326 331 334 349 354 294 310 292 313 276 164 198 218 202 209 235 216 201 218 234 257 261 261 256 274 253 271 271 279 277 278 318 301 282
347 347 346 343 342 341 340 338 337 332 326 323 321 321 323 320 264 262 294 321 295 259 275 146 141 146 179 201 104 194 192 217 254 257 230 270 257 241 270 267 274 278 302 313 306 280 284
345 346 344 342 341 340 338 337 337 334 326 320 319 315 315 314 274 218 290 296 309 234 255 149 148 188 199 212 242 135 198 222 248 263 265 275 275 266 272 280 260 279 272 274 270 257 260
344 344 342 341 339 337 336 336 336 334 327 320 315 307 299 255 129 277 256 265 233 248 123 153 174 173 202 194 230 166 199 207 231 231 242 238 233 232 241 249 268 252 256 258 245 234 252
346 344 341 338 336 335 333 333 335 335 329 320 312 300 280 242 233 259 229 233 253 256 168 61 130 167 201 183 217 189 205 225 213 255 280 284 349 195 189 216 268 223 253 266 295 309 315
347 343 339 336 333 331 331 332 333 335 332 322 314 294 286 300 213 192 227 230 235 313 15 358 188 265 194 227 227 197 217 257 235 203 253 299 45 127 227 279 215 253 254 252 282 292 285
347 343 338 333 331 330 331 331 332 336 338 323 312 217 233 197 175 179 236 255 296 8 359 297 281 205 232 201 193 236 239 224 249 225 306 294 294 295 142 200 235 253 279 271 243 261 266
344 341 338 335 332 332 332 333 335 338 342 325 251 233 161 168 174 221 241 239 273 94 331 280 295 295 285 61 259 232 230 122 159 41 321 309 297 287 239 218 263 191 225 236 273 291 301
341 340 339 336 334 335 335 339 340 341 350 327 285 274 162 164 202 224 243 332 38 301 182 268 287 309 307 341 301 240 103 55 39 345 314 307 311 291 290 311 277 279 293 289 251 246 249
340 340 339 339 338 337 341 346 347 346 348 347 277 245 179 187 242 246 207 286 293 287 255 301 264 298 358 305 328 298 66 95 53 4 30 353 296 293 278 278 13 330 337 339 306 284 277
341 341 342 341 341 346 349 352 351 348 349 343 298 197 156 211 264 282 312 228 179 188 302 303 309 334 276 273 269 275 293 105 67 37 32 332 285 282 285 300 315 293 294 292 305 304 307
342 343 345 346 348 352 356 357 356 355 356 341 257 347 8 189 234 252 341 7 267 187 227 270 238 278 349 328 302 303 321 309 79 110 230 271 269 285 297 303 307 304 301 288 276 290 299
344 347 351 352 355 359 3 2 4 6 12 13 330 350 341 308 241 330 143 237 286 45 333 23 280 19 333 310 348 356 356 344 331 326 320 325 309 312 304 299 296 293 287 288 287 270 272
345 350 355 359 4 6 7 7 9 15 38 12 344 314 279 283 259 241 19 55 27 27 128 333 349 318 304 15 335 313 303 291 283 285 288 292 294 301 292 302 300 291 296 303 308 304 302
346 351 355 360 3 6 7 9 14 22 45 46 346 329 283 289 273 24 37 8 39 28 328 12 352 319 15 327 312 287 265 256 257 264 273 278 284 281 287 291 275 290 352 360 339 36 7
347 352 354 356 1 5 7 7 13 19 36 51 0 5 325 308 34 165 93 5 51 152 245 311 33 334 313 302 289 293 250 210 232 207 328 329 290 321 310 291 291 0 15 359 354 341 12
346 351 353 356 358 5 5 8 10 12 20 68 348 7 312 306 56 7 317 313 297 221 169 145 357 325 316 268 246 240 308 39 350 344 322 317 302 277 289 293 292 27 358 336 332 325 7
344 347 351 355 356 1 6 8 9 10 14 30 18 359 335 293 59 355 4 3 346 301 298 108 358 299 237 296 282 313 34 33 300 332 346 334 326 291 295 305 92 24 340 316 298 311 340
342 343 346 350 354 355 2 6 7 10 21 58 26 2 16 318 41 25 10 359 356 296 343 31 253 197 302 285 328 56 309 26 288 352 312 313 325 301 334 331 3 321 345 321 315 249 278
335 340 341 342 346 349 353 359 4 9 25 83 29 347 338 299 341 288 277 253 49 1 343 0 38 11 14 304 49 309 318 322 19 296 138 249 6 317 324 318 36 7 335 351 347 340 333
Height
1563 1561 1559 1557 1555 1553 1551 1548 1546 1543 1541 1538 1535 1532 1530 1527 1524 1522 1520 1518 1517 1517 1516 1515 1515 1515 1514 1514 1509 1506 1505 1507 1511 1513 1514 1513 1508 1503 1498 1494 1495 1492 1493 1494 1492 1490 1487
1564 1562 1560 1558 1556 1554 1551 1549 1546 1544 1541 1538 1535 1532 1529 1526 1523 1520 1518 1517 1516 1515 1515 1514 1514 1514 1514 1514 1507 1507 1506 1507 1510 1513 1514 1512 1508 1506 1504 1499 1497 1494 1496 1494 1491 1489 1488
1566 1564 1561 1559 1557 1555 1552 1550 1547 1544 1541 1537 1534 1531 1528 1525 1522 1519 1517 1515 1514 1514 1514 1514 1514 1513 1514 1510 1507 1507 1507 1508 1509 1512 1512 1511 1510 1509 1503 1498 1495 1496 1495 1487 1486 1489 1487
1566 1564 1562 1560 1558 1555 1552 1550 1547 1544 1541 1537 1534 1531 1527 1524 1521 1518 1515 1514 1513 1513 1513 1513 1513 1513 1509 1505 1506 1506 1507 1508 1510 1511 1512 1510 1510 1511 1507 1501 1497 1493 1488 1493 1484 1487 1486
1567 1564 1562 1560 1558 1555 1553 1550 1547 1544 1540 1536 1533 1530 1526 1523 1519 1517 1514 1513 1513 1513 1512 1512 1513 1513 1505 1503 1504 1505 1506 1507 1509 1510 1511 1512 1513 1510 1505 1499 1496 1485 1495 1490 1489 1484 1487
1567 1564 1562 1560 1558 1555 1552 1549 1546 1543 1539 1535 1532 1529 1525 1521 1518 1515 1514 1513 1512 1512 1512 1512 1512 1517 1505 1501 1502 1504 1505 1506 1508 1509 1510 1511 1510 1506 1500 1498 1508 1493 1495 1485 1489 1482 1480
1567 1564 1562 1560 1557 1554 1551 1548 1545 1542 1538 1534 1530 1527 1524 1520 1517 1514 1513 1513 1514 1514 1512 1504 1502 1499 1499 1500 1502 1503 1505 1506 1506 1507 1506 1504 1507 1506 1494 1486 1483 1481 1487 1494 1485 1479 1482
1566 1564 1562 1559 1556 1553 1550 1547 1544 1540 1536 1532 1528 1525 1522 1519 1515 1512 1512 1512 1511 1512 1505 1500 1500 1499 1499 1500 1501 1501 1504 1505 1504 1504 1500 1502 1501 1490 1487 1484 1482 1484 1492 1491 1481 1475 1481
1566 1563 1561 1558 1556 1553 1549 1546 1542 1538 1534 1531 1527 1523 1521 1517 1514 1512 1511 1511 1511 1510 1503 1490 1495 1497 1498 1500 1496 1497 1501 1501 1497 1498 1494 1496 1483 1481 1484 1485 1485 1487 1492 1488 1489 1480 1478
1566 1563 1560 1558 1555 1552 1548 1545 1541 1537 1532 1528 1524 1521 1519 1516 1516 1514 1513 1511 1511 1511 1503 1484 1490 1491 1494 1496 1493 1490 1496 1499 1496 1494 1488 1485 1480 1482 1482 1490 1484 1493 1477 1476 1483 1492 1503
1565 1563 1560 1557 1554 1551 1547 1543 1539 1534 1530 1526 1522 1519 1517 1515 1514 1514 1514 1512 1511 1511 1515 1480 1484 1487 1489 1492 1485 1489 1493 1497 1493 1487 1489 1489 1479 1482 1486 1483 1481 1487 1477 1480 1482 1488 1488
1565 1562 1560 1556 1553 1550 1546 1541 1536 1531 1526 1522 1519 1516 1514 1512 1511 1511 1511 1513 1512 1512 1505 1476 1479 1484 1486 1488 1483 1488 1492 1495 1492 1490 1486 1482 1478 1477 1480 1477 1477 1478 1481 1481 1480 1483 1501
1564 1562 1559 1556 1552 1548 1544 1539 1533 1528 1523 1519 1516 1512 1510 1510 1511 1512 1513 1513 1510 1505 1462 1472 1474 1475 1480 1482 1483 1483 1488 1491 1496 1500 1491 1477 1470 1471 1475 1482 1478 1480 1485 1506 1503 1495 1491
1564 1561 1558 1554 1551 1546 1541 1536 1531 1526 1520 1515 1511 1508 1507 1507 1508 1511 1513 1510 1513 1469 1460 1458 1462 1468 1478 1472 1478 1476 1481 1487 1482 1484 1485 1483 1485 1466 1466 1477 1483 1478 1482 1496 1513 1498 1491
1564 1560 1557 1553 1549 1544 1539 1533 1528 1523 1517 1511 1508 1506 1504 1504 1505 1510 1511 1505 1487 1468 1462 1466 1464 1470 1471 1466 1468 1471 1474 1475 1469 1471 1486 1482 1483 1464 1467 1468 1473 1479 1486 1467 1478 1469 1478
1563 1559 1555 1551 1546 1541 1536 1531 1525 1520 1515 1508 1505 1505 1505 1505 1506 1509 1507 1500 1480 1472 1474 1473 1478 1464 1471 1464 1468 1472 1469 1462 1467 1465 1468 1473 1487 1461 1462 1468 1468 1472 1466 1482 1471 1503 1502
1562 1558 1553 1548 1543 1538 1533 1529 1523 1517 1513 1507 1505 1503 1502 1504 1507 1507 1498 1482 1472 1477 1481 1477 1472 1468 1464 1466 1470 1468 1466 1461 1466 1468 1474 1473 1476 1475 1461 1468 1469 1470 1472 1470 1468 1470 1488
1561 1556 1551 1546 1541 1536 1531 1527 1522 1516 1511 1509 1507 1500 1501 1503 1505 1497 1488 1475 1481 1480 1481 1480 1476 1473 1470 1466 1465 1466 1474 1477 1475 1475 1479 1472 1475 1483 1471 1454 1452 1455 1457 1459 1475 1481 1466
1559 1554 1549 1544 1539 1534 1530 1526 1522 1517 1511 1508 1505 1494 1501 1502 1495 1484 1478 1481 1484 1482 1480 1479 1478 1475 1474 1476 1482 1472 1468 1478 1482 1482 1491 1486 1482 1491 1479 1464 1469 1467 1463 1460 1456 1453 1466
1557 1552 1547 1542 1537 1533 1529 1526 1523 1518 1513 1511 1507 1491 1496 1500 1495 1487 1477 1481 1483 1489 1487 1487 1483 1481 1483 1481 1476 1480 1475 1473 1481 1485 1491 1491 1490 1494 1500 1483 1474 1480 1476 1471 1471 1476 1469
1556 1551 1546 1541 1537 1533 1529 1526 1522 1518 1514 1512 1507 1491 1492 1489 1488 1484 1484 1485 1484 1485 1489 1490 1487 1487 1486 1491 1483 1478 1475 1475 1479 1488 1490 1490 1497 1489 1484 1478 1475 1475 1475 1472 1477 1472 1477
1555 1550 1545 1541 1537 1533 1530 1526 1523 1519 1516 1513 1511 1508 1502 1494 1495 1492 1492 1490 1488 1485 1494 1489 1492 1489 1492 1494 1492 1495 1495 1491 1493 1492 1492 1489 1499 1494 1497 1488 1483 1481 1473 1471 1468 1468 1465
1555 1550 1546 1541 1537 1534 1531 1528 1524 1520 1518 1517 1518 1514 1511 1501 1493 1491 1489 1490 1493 1497 1499 1501 1502 1501 1496 1502 1503 1501 1500 1499 1497 1496 1495 1496 1498 1502 1507 1494 1492 1497 1481 1474 1469 1466 1468
1554 1550 1546 1542 1538 1535 1532 1529 1526 1523 1521 1520 1521 1519 1512 1494 1494 1497 1497 1500 1500 1504 1505 1502 1506 1504 1507 1506 1503 1499 1495 1493 1492 1492 1491 1493 1496 1498 1504 1498 1517 1486 1480 1480 1476 1480 1476
1554 1550 1547 1543 1539 1536 1534 1531 1528 1526 1524 1522 1522 1521 1516 1506 1500 1503 1504 1504 1506 1510 1509 1508 1506 1510 1508 1506 1500 1495 1485 1489 1485 1485 1488 1492 1496 1503 1512 1509 1494 1487 1509 1507 1508 1499 1490
1554 1550 1547 1543 1540 1538 1535 1533 1530 1528 1525 1524 1524 1521 1522 1513 1509 1512 1509 1510 1505 1500 1504 1507 1509 1509 1508 1502 1495 1507 1497 1495 1499 1496 1490 1489 1492 1500 1501 1511 1513 1516 1518 1517 1505 1506 1509
1553 1550 1547 1544 1541 1539 1536 1534 1532 1529 1527 1526 1526 1522 1522 1517 1516 1517 1514 1513 1512 1509 1504 1507 1512 1507 1506 1498 1495 1492 1497 1498 1510 1510 1506 1505 1505 1507 1501 1503 1513 1521 1522 1516 1526 1524 1519
1553 1550 1547 1544 1542 1540 1537 1535 1533 1531 1529 1528 1529 1525 1524 1521 1519 1520 1520 1518 1517 1514 1509 1513 1511 1507 1502 1503 1499 1498 1503 1500 1507 1503 1507 1511 1513 1508 1503 1511 1524 1515 1517 1521 1515 1510 1510
1552 1550 1548 1545 1542 1540 1538 1536 1534 1532 1531 1530 1531 1529 1526 1526 1523 1522 1522 1522 1522 1522 1521 1516 1516 1517 1517 1509 1506 1506 1506 1502 1508 1511 1502 1512 1512 1516 1517 1515 1515 1518 1516 1515 1513 1512 1510